Hourly Data Report for October 05, 2016

All times are specified in Local Standard Time (LST). Add 1 hour to adjust for Daylight Saving Time where and when it is observed.

PETAWAWA AWOS 2
ONTARIO

45°57'00.000" N
77°19'00.000" W
130.10 m
6106396
71625
YWA

Download Data

Hourly Data (October 2016)
Hourly Data Report for October 5, 2016
Temp Definition
°C
Dew Point Temp Definition
°C
Rel Hum Definition
%
Wind Dir Definition
10's deg

Wind Spd Definition
km/h
Visibility Definition
km
Stn Press Definition
kPa
Hmdx Definition


Wind Chill Definition


Weather Definition


TIME
00:00 8.7 8.7 100   0 1.6 101.09     LegendNANA
01:00 11.6 11.1 97   0 14.5 101.09     LegendNANA
02:00 9.0 9.0 100   0 14.5 101.08     LegendNANA
03:00 11.6 11.3 98 17 6 14.5 101.06     LegendNANA
04:00 12.2 11.0 92 14 6 14.5 101.07     LegendNANA
05:00 12.1 10.4 89 12 13 14.5 101.05     LegendNANA
06:00 11.9 10.3 90 14 9 14.5 101.08     LegendNANA
07:00 11.0 10.4 96 18 6 14.5 101.11     LegendNANA
08:00 12.7 10.9 89 13 13 14.5 101.17     LegendNANA
09:00 13.7 11.7 88 12 9 14.5 101.16     LegendNANA
10:00 14.7 12.6 87 12 11 14.5 101.13     LegendNANA
11:00 15.1 12.7 86 12 7 14.5 101.06     LegendNANA
12:00 17.1 13.9 81 9 7 14.5 101.01     LegendNANA
13:00 16.8 13.4 80 10 6 14.5 100.95     LegendNANA
14:00 18.6 14.2 76 14 17 14.5 100.87     LegendNANA
15:00 19.9 13.0 64 18 15 14.5 100.79     LegendNANA
16:00 19.1 13.5 70 19 13 14.5 100.75     LegendNANA
17:00 18.7 13.6 72 18 6 14.5 100.72     LegendNANA
18:00 17.4 13.2 76 16 6 14.5 100.67     LegendNANA
19:00 16.3 14.7 90 14 7 14.5 100.63     LegendNANA
20:00 15.3 12.8 85 17 9 14.5 100.62     LegendNANA
21:00 15.1 12.5 84 16 13 14.5 100.63     LegendNANA
22:00 14.8 11.9 83 18 7 14.5 100.64     LegendNANA
23:00 14.0 11.8 87 14 9 14.5 100.65     LegendNANA

Notes on Data Quality.

Legend

  • E = Estimated
  • M = Missing
  • NA = Not Available
  • ‡ = Partner data that is not subject to review by the National Climate Archives
Date modified: